Vertical_Velocity
1 -1 0 -2 -3 -1 -2 -0 -1 -1 -1 -1 -2 3 -1 -1 -0 1 -0 -3 -3 -1 -2 -3 1 -1 -2 7 3 -2 -1 -2 -2 -1 -0 -1 -1 -1 -1 -0 1 -0 0
3 -0 -1 -1 -2 -1 -1 -1 -1 -1 -0 -1 0 -2 -2 -1 -1 -2 -2 1 -0 -1 0 -1 0 -0 1 1 0 -1 -3 -4 -2 1 0 -1 -3 -1 -2 -1 -1 1 1
4 -1 0 -1 -1 -2 -1 -1 -0 -0 -2 -1 -1 2 5 2 2 -1 -1 0 1 1 -0 -1 -1 0 -4 -1 -1 -2 -1 -1 -0 0 -1 3 -1 -0 -0 0 -1 -0 0
-2 0 -3 -2 -1 -2 -2 -1 -2 1 -0 -1 -2 -0 0 2 -0 -1 -3 -0 0 1 -0 -1 -2 -2 -1 -4 -3 -1 -1 -1 -1 1 -3 -1 -2 -1 0 -1 -1 -3 1
-4 0 2 -0 -1 -1 -3 -2 -2 -2 1 0 -2 -1 -2 -1 0 -2 -0 -1 -2 -2 -1 1 -1 0 -0 -2 -3 -1 -1 -1 -1 0 0 -2 2 -1 -1 2 -3 -0 -1
-1 -2 1 -4 -3 -2 -0 -1 -2 -2 -2 -0 1 -1 -1 -2 -2 -2 -1 -1 -2 -0 -3 -1 0 -1 -1 -2 0 0 -1 -2 -0 -5 1 4 -2 3 -1 -1 0 -1 2
2 2 -1 -0 -3 -1 -2 1 -2 -2 -1 -1 -2 -0 -1 -2 -1 -0 -1 -1 -0 -2 0 -0 0 1 -1 -2 -1 -2 0 1 -2 -3 4 -3 -2 -1 1 1 2 2 4
-3 -2 -2 -1 -2 -2 -2 -1 -1 -0 -1 -2 -2 -1 -1 -1 -3 -0 -1 0 -0 -2 -2 -1 -2 -4 -1 -2 0 1 1 -0 2 1 8 -2 -3 -1 -0 0 -1 2 -1
2 -3 -2 1 -3 -2 -3 -5 -1 -3 -0 -2 -2 -0 -0 -2 -1 -2 -1 -3 -2 -0 -1 -0 -2 -1 -2 -0 0 0 0 -0 0 -2 -0 0 -0 1 -1 -4 2 -0 -1
2 -3 -4 2 -4 -2 0 2 -5 -4 -3 1 -2 -1 -1 -1 2 -1 -2 -2 -3 -1 -0 -2 -2 1 -1 -1 0 0 0 -0 -1 6 -2 -3 -0 -0 0 0 2 -2 -1
1 5 -2 -4 -2 -1 0 -1 4 -4 -7 -2 1 -6 1 -2 0 -3 -1 0 -0 -1 -3 -0 -1 -1 0 -0 -3 -0 -2 -3 2 -4 -2 -1 1 0 -4 2 0 -0 -1
-0 2 7 -2 -2 -1 -3 -1 2 2 4 -2 -3 -1 -2 -1 -1 -3 -0 -1 -0 0 -0 -3 1 -2 0 -1 -3 -2 0 -0 2 -6 -2 2 1 -2 -1 1 -2 -1 1
-3 1 2 12 0 -4 0 -3 -0 -4 -2 -1 -3 2 -1 1 -1 1 2 4 -4 1 1 1 -4 1 -0 1 -0 -0 -1 -1 3 -0 -1 -0 3 0 -0 -4 1 -0 -1
-1 -4 -4 -7 8 1 -1 -3 0 -4 -2 -1 1 -1 -1 -2 3 -1 -1 1 -2 2 -1 -0 1 -2 -2 -1 -2 0 -0 -1 5 -5 -0 -0 0 0 1 -1 0 1 -1
19 3 -3 -1 -2 4 1 -2 -1 -1 2 -0 3 2 -3 0 -3 2 7 0 -0 2 -1 0 -1 -3 -0 -1 -1 -2 -2 1 4 -6 -1 1 -1 0 1 -1 -1 0 -0
7 5 1 -4 -1 1 -1 -3 -1 -3 8 2 1 1 -2 0 -2 7 -1 -1 -1 -0 1 -1 -1 -1 -2 -1 0 -2 -1 -2 -0 -1 1 -0 -1 -1 -1 0 -1 -0 1
-12 13 -3 -1 1 -2 -1 2 -2 -1 -4 2 1 1 2 3 1 -2 -2 -1 -1 -0 -0 -0 -1 -3 -1 -1 -0 -1 -1 -2 1 1 -3 -2 -0 -1 -1 -0 -1 0 0
20 -6 3 -1 -6 -2 -2 -2 -5 -4 -1 -4 1 -2 1 -3 1 -4 -1 -1 -1 1 -0 -1 -1 -2 -1 -1 -1 -0 -2 -1 0 2 1 -1 -2 -2 -1 -0 -1 -0 -0
0 8 11 13 -2 -2 -4 2 9 -1 5 1 1 -3 -2 -4 -5 2 0 -1 -2 -1 0 -1 1 -2 -1 -2 -1 -2 -1 -1 0 2 -1 -1 -1 1 1 -4 -2 -1 -3
-3 12 4 4 8 2 -6 7 8 2 3 2 6 3 -4 -7 0 -0 0 -2 -1 -1 -0 -1 1 -1 -1 -2 -1 -2 -2 -2 0 -0 -0 -1 -4 -5 -1 -0 -2 -0 -1
3 3 18 8 -5 1 8 -2 0 2 -5 0 -1 -1 -1 1 1 -1 -1 -2 -2 -2 -2 -0 -1 -1 -1 -3 -2 -1 -0 1 0 0 -0 -1 -2 1 -3 -2 -2 -0 -2
-12 -3 4 15 3 -3 0 8 7 2 1 0 -1 1 5 5 7 -0 1 -0 -1 -2 -2 -1 -2 -0 -2 -4 -3 -4 -1 1 -2 -1 0 2 3 -0 0 -2 -1 -1 -1
2 -14 -2 8 12 1 5 6 -6 10 5 -0 0 3 -3 -0 7 -3 -1 -0 -1 -0 -1 -2 -2 -3 -3 -1 -3 -4 -1 -2 -1 2 2 1 1 1 -1 -0 -3 -2 -1
-1 -1 -11 7 5 11 4 -2 -6 2 -3 -5 3 1 7 4 3 3 -1 1 0 -1 -1 -1 -1 -1 -1 -2 -2 -3 -1 -1 -2 -5 2 0 3 -0 -1 -0 0 1 0
-2 19 2 -8 7 12 3 -2 4 1 4 7 -1 1 1 3 3 3 -1 2 -1 -2 -1 -1 -1 -1 -2 -2 -1 -1 -2 -2 -1 -2 -7 -7 -4 1 -1 -3 -3 -1 -1
-0 -3 3 9 5 10 5 -6 3 3 -2 -4 0 -2 2 3 0 2 -3 5 -1 0 -2 -2 -2 -2 -2 -2 -2 -1 -2 -1 0 0 -2 -3 -1 -6 -4 -3 -1 -4 -1
Height
1495 1498 1500 1502 1505 1507 1509 1511 1512 1514 1515 1516 1518 1519 1520 1522 1523 1523 1523 1523 1524 1525 1525 1526 1528 1528 1528 1530 1531 1533 1534 1535 1536 1536 1536 1536 1535 1535 1534 1533 1533 1534 1535
1494 1497 1500 1502 1505 1507 1509 1511 1513 1514 1514 1515 1516 1518 1520 1522 1523 1523 1524 1524 1524 1524 1524 1526 1528 1530 1530 1530 1531 1533 1534 1535 1536 1536 1536 1535 1535 1536 1535 1534 1534 1534 1534
1494 1496 1500 1502 1505 1507 1509 1511 1512 1513 1514 1514 1516 1519 1520 1522 1524 1524 1525 1525 1524 1524 1525 1526 1528 1531 1532 1532 1533 1534 1534 1534 1535 1535 1536 1536 1535 1536 1535 1534 1534 1534 1535
1494 1496 1500 1502 1505 1507 1510 1511 1513 1513 1514 1515 1516 1519 1521 1522 1523 1525 1525 1526 1526 1526 1526 1527 1529 1531 1531 1532 1533 1534 1533 1534 1535 1535 1535 1536 1536 1536 1535 1535 1534 1534 1535
1495 1497 1500 1502 1506 1508 1510 1512 1513 1514 1515 1516 1518 1519 1521 1522 1524 1526 1526 1527 1528 1528 1529 1529 1530 1531 1531 1532 1533 1533 1534 1534 1535 1535 1536 1536 1536 1535 1535 1534 1534 1534 1534
1497 1497 1500 1503 1506 1508 1510 1511 1513 1514 1515 1517 1518 1519 1521 1523 1524 1526 1527 1528 1528 1529 1530 1531 1531 1531 1532 1533 1533 1534 1534 1534 1535 1535 1537 1536 1536 1535 1535 1534 1534 1534 1534
1498 1499 1501 1503 1505 1508 1510 1512 1513 1514 1515 1517 1519 1520 1521 1523 1525 1526 1527 1528 1529 1530 1531 1531 1532 1532 1532 1533 1534 1534 1534 1534 1535 1536 1537 1536 1534 1534 1534 1534 1534 1534 1533
1497 1499 1501 1503 1505 1507 1510 1512 1512 1514 1515 1517 1518 1520 1522 1523 1524 1526 1527 1529 1530 1531 1531 1532 1531 1533 1533 1533 1534 1533 1533 1534 1534 1535 1535 1534 1534 1532 1532 1532 1532 1532 1531
1498 1496 1499 1502 1504 1507 1509 1511 1512 1513 1515 1516 1518 1520 1522 1523 1524 1525 1527 1528 1530 1531 1531 1532 1532 1533 1533 1534 1533 1533 1533 1533 1534 1534 1533 1532 1532 1531 1530 1530 1530 1530 1530
1498 1497 1498 1500 1502 1505 1508 1510 1511 1512 1515 1516 1517 1520 1522 1524 1525 1525 1527 1528 1529 1531 1531 1532 1533 1533 1532 1533 1533 1532 1532 1532 1533 1532 1531 1531 1531 1530 1529 1529 1528 1528 1528
1497 1498 1497 1499 1502 1504 1506 1509 1510 1511 1513 1515 1517 1519 1521 1523 1524 1525 1526 1528 1529 1530 1530 1532 1531 1532 1532 1531 1531 1532 1531 1531 1532 1530 1529 1530 1529 1528 1527 1527 1527 1525 1526
1495 1497 1499 1498 1500 1504 1505 1507 1509 1510 1511 1513 1516 1518 1519 1521 1523 1523 1526 1527 1528 1529 1529 1530 1531 1530 1531 1530 1529 1530 1530 1530 1530 1527 1527 1528 1526 1526 1525 1525 1524 1524 1524
1493 1496 1498 1499 1500 1502 1503 1506 1507 1509 1511 1512 1514 1517 1518 1521 1522 1523 1525 1525 1527 1528 1528 1529 1529 1529 1530 1529 1529 1529 1527 1527 1527 1525 1525 1525 1524 1524 1523 1522 1523 1523 1522
1490 1492 1494 1497 1500 1500 1501 1504 1505 1506 1509 1511 1513 1515 1517 1518 1521 1522 1525 1524 1526 1526 1526 1528 1528 1527 1528 1528 1527 1526 1526 1525 1525 1522 1522 1522 1521 1521 1522 1520 1521 1521 1520
1487 1488 1490 1494 1496 1498 1499 1502 1503 1506 1508 1511 1513 1514 1515 1517 1520 1522 1524 1524 1526 1525 1525 1526 1526 1527 1526 1526 1525 1523 1524 1523 1523 1520 1519 1520 1519 1519 1520 1520 1520 1520 1519
1485 1485 1486 1488 1492 1494 1496 1498 1500 1504 1508 1509 1511 1513 1515 1518 1519 1521 1521 1524 1524 1524 1524 1524 1525 1525 1525 1523 1522 1520 1521 1520 1521 1519 1517 1518 1517 1518 1518 1518 1518 1519 1518
1480 1482 1483 1485 1487 1489 1493 1495 1498 1500 1504 1506 1509 1511 1513 1517 1518 1518 1520 1522 1522 1523 1523 1523 1523 1523 1522 1521 1520 1519 1518 1519 1519 1518 1516 1515 1516 1516 1516 1517 1516 1516 1516
1475 1477 1479 1481 1483 1486 1486 1490 1492 1495 1500 1502 1505 1509 1511 1512 1514 1516 1518 1519 1521 1522 1522 1521 1521 1520 1520 1519 1518 1517 1516 1517 1516 1515 1515 1514 1513 1514 1514 1514 1514 1513 1512
1469 1472 1474 1474 1476 1479 1482 1486 1488 1492 1495 1497 1500 1504 1507 1506 1511 1513 1515 1516 1519 1520 1520 1520 1519 1518 1518 1517 1516 1515 1514 1515 1514 1514 1512 1513 1513 1513 1513 1511 1511 1509 1508
1462 1465 1468 1470 1472 1474 1477 1480 1484 1488 1490 1494 1495 1497 1499 1504 1507 1510 1511 1513 1516 1517 1518 1517 1517 1516 1516 1515 1514 1513 1513 1513 1513 1512 1511 1511 1510 1510 1510 1509 1506 1506 1505
1454 1457 1460 1461 1464 1469 1471 1473 1477 1479 1484 1488 1490 1492 1496 1500 1503 1505 1507 1510 1512 1513 1515 1515 1515 1515 1515 1513 1513 1513 1512 1512 1511 1510 1510 1509 1509 1508 1507 1506 1504 1503 1501
1446 1449 1454 1456 1456 1461 1465 1469 1469 1472 1477 1481 1485 1488 1493 1497 1499 1502 1504 1506 1508 1510 1512 1513 1513 1513 1512 1512 1512 1510 1511 1511 1510 1509 1509 1508 1508 1506 1505 1503 1502 1499 1497
1438 1442 1445 1449 1452 1454 1458 1461 1462 1467 1470 1474 1479 1483 1488 1493 1496 1498 1500 1503 1506 1508 1509 1510 1510 1511 1510 1510 1510 1510 1509 1509 1508 1508 1507 1507 1506 1505 1503 1501 1498 1495 1493
1432 1435 1440 1443 1446 1448 1448 1452 1454 1457 1460 1464 1471 1477 1483 1489 1491 1493 1497 1500 1503 1505 1507 1508 1509 1509 1508 1508 1507 1508 1507 1507 1506 1505 1504 1504 1504 1501 1500 1497 1494 1491 1489
1427 1429 1431 1436 1440 1442 1440 1445 1450 1452 1455 1460 1466 1473 1479 1483 1487 1489 1493 1496 1499 1502 1504 1506 1507 1507 1507 1506 1505 1504 1504 1503 1503 1502 1497 1497 1497 1497 1494 1492 1489 1486 1484
1421 1421 1424 1428 1432 1435 1433 1439 1445 1445 1449 1454 1461 1466 1472 1477 1482 1486 1489 1493 1496 1499 1501 1503 1504 1504 1504 1504 1503 1502 1501 1501 1500 1499 1496 1492 1490 1487 1486 1486 1484 1481 1479